Location: Most
(50.5133°N, 13.6207°E)
Time: 19:14:11
(UTC+02:00)

ISS - Pass Details

Date: 19 May 2019
Orbit: 407 x 410 km, 51.6° (Epoch: 23 May)

Event Time Altitude Azimuth Distance (km) Brightness Sun altitude
Rises 03:41:20 0° 286° (WNW) 2,340 -0.2 -11.5°
Reaches altitude 10° 03:43:34 10° 275° (W) 1,477 -1.3 -11.3°
Maximum altitude 03:46:30 29° 212° (SSW) 775 -3.0 -11.0°
Drops below altitude 10° 03:49:26 10° 150° (SSE) 1,471 -1.2 -10.7°
Sets 03:51:39 0° 139° (SE) 2,329 -0.1 -10.5°
